DW1824 Weather Reports


time (UTC)temp
C
wind
direction
speed
KPH
gust
KPH
rain 1hr
cm
rain 24hr
cm
rain mn
cm
humidity
%
barometer
mb
20260509230328 29 115 0.0 0.0 0.00 0.00 0.00 78 1008.2
20260509225334 30 115 0.0 0.0 0.00 0.00 0.00 77 1008.3
20260509224328 30 115 0.0 0.0 0.00 0.00 0.00 73 1008.2
20260509223338 30 115 0.0 0.0 0.00 0.00 0.00 73 1008.1
20260509222325 30 115 0.0 1.6 0.00 0.00 0.00 70 1008.3
20260509221349 30 115 1.6 3.2 0.00 0.00 0.00 70 1007.9
20260509220331 30 107 0.0 0.0 0.00 0.00 0.00 70 1007.8
20260509215339 30 107 0.0 0.0 0.00 0.00 0.00 69 1008.0
20260509214330 30 107 0.0 0.0 0.00 0.00 0.00 71 1008.0
20260509213338 30 113 1.6 4.8 0.00 0.00 0.00 70 1008.1
20260509212344 31 319 0.0 4.8 0.00 0.00 0.00 65 1008.0
20260509211329 31 13 4.8 8.0 0.00 0.00 0.00 65 1008.1
20260509210338 31 292 0.0 0.0 0.00 0.00 0.00 66 1008.1
20260509205326 30 318 0.0 6.4 0.00 0.00 0.00 70 1008.4
20260509204334 30 100 0.0 3.2 0.00 0.00 0.00 71 1008.6
20260509203341 30 308 0.0 4.8 0.00 0.00 0.00 71 1008.6
20260509202333 30 171 0.0 4.8 0.00 0.00 0.00 71 1008.7
20260509201341 30 127 1.6 4.8 0.00 0.00 0.00 72 1008.8
20260509200330 30 54 1.6 4.8 0.00 0.00 0.00 74 1008.9
20260509195359 29 7 0.0 3.2 0.00 0.00 0.00 76 1009.0
20260509194326 30 340 1.6 6.4 0.00 0.00 0.00 74 1009.1
20260509193332 29 130 0.0 4.8 0.00 0.00 0.00 75 1009.2
20260509192359 29 114 0.0 4.8 0.00 0.00 0.00 76 1009.4
20260509191331 29 85 0.0 4.8 0.00 0.00 0.00 75 1009.4
20260509190337 29 121 1.6 6.4 0.00 0.00 0.00 76 1009.5
20260509185324 28 129 1.6 4.8 0.00 0.00 0.00 76 1009.6
20260509184332 28 254 0.0 4.8 0.00 0.00 0.00 76 1009.6
20260509183339 28 131 4.8 11.3 0.00 0.00 0.00 78 1009.7
20260509182327 28 147 3.2 11.3 0.00 0.00 0.00 78 1009.8
20260509181335 28 119 4.8 9.7 0.00 0.00 0.00 79 1009.8
20260509180327 28 133 1.6 6.4 0.00 0.00 0.00 80 1010.2
20260509175335 28 119 4.8 9.7 0.00 0.00 0.00 78 1010.3
20260509174341 27 175 1.6 4.8 0.00 0.00 0.00 80 1010.5
20260509173330 27 164 1.6 8.0 0.00 0.00 0.00 81 1010.7
20260509172337 27 138 3.2 4.8 0.00 0.00 0.00 82 1010.9
20260509171323 27 159 0.0 4.8 0.00 0.00 0.00 83 1011.0
20260509170352 27 153 1.6 4.8 0.00 0.00 0.00 81 1010.8
20260509165342 27 173 0.0 0.0 0.00 0.00 0.00 83 1010.5
20260509164331 27 204 0.0 0.0 0.00 0.00 0.00 83 1010.7
20260509163339 27 10 0.0 0.0 0.00 0.00 0.00 84 1010.7
20260509162327 26 117 0.0 0.0 0.00 0.00 0.00 86 1010.8
20260509161335 26 11 0.0 0.0 0.00 0.00 0.00 87 1011.0
20260509160342 26 5 0.0 0.0 0.00 0.00 0.00 88 1011.0
20260509155334 25 29 0.0 0.0 0.00 0.00 0.00 89 1011.2
20260509154341 25 335 0.0 0.0 0.00 0.00 0.00 90 1011.2
20260509153350 25 11 0.0 0.0 0.00 0.00 0.00 91 1011.1
20260509152338 25 11 0.0 0.0 0.00 0.00 0.00 91 1011.1
20260509151331 25 11 0.0 0.0 0.00 0.00 0.00 92 1010.8
20260509150340 25 11 0.0 0.0 0.00 0.00 0.00 93 1010.9
20260509145349 25 11 0.0 0.0 0.00 0.00 0.00 94 1010.6
20260509144339 25 12 0.0 0.0 0.00 0.00 0.00 94 1010.2
20260509143348 25 12 0.0 0.0 0.00 0.00 0.00 94 1010.2
20260509142353 24 21 0.0 0.0 0.00 0.00 0.00 94 1010.0
20260509141400 24 21 0.0 0.0 0.00 0.00 0.00 95 1009.8
20260509140326 24 113 0.0 0.0 0.00 0.00 0.00 95 1010.1
20260509135334 24 112 0.0 0.0 0.00 0.00 0.00 95 1010.2
20260509134340 24 123 0.0 0.0 0.00 0.00 0.00 95 1010.1
20260509133330 24 123 0.0 0.0 0.00 0.00 0.00 95 1010.4
20260509132323 24 123 0.0 0.0 0.00 0.00 0.00 95 1010.7
20260509131331 24 180 0.0 1.6 0.00 0.00 0.00 95 1010.7
20260509130339 24 171 0.0 1.6 0.00 0.00 0.00 95 1010.9
20260509125327 23 125 0.0 0.0 0.00 0.00 0.00 95 1010.8
20260509124356 23 126 0.0 1.6 0.00 0.00 0.00 95 1010.9
20260509123343 23 126 0.0 0.0 0.00 0.00 0.00 95 1010.9
20260509122330 23 126 0.0 4.8 0.00 0.00 0.00 95 1010.5
20260509121342 23 115 0.0 0.0 0.00 0.00 0.00 95 1010.6
20260509120329 23 333 0.0 0.0 0.00 0.00 0.00 95 1011.0
20260509115337 23 333 0.0 0.0 0.00 0.00 0.00 95 1010.8
20260509114323 23 345 0.0 3.2 0.00 0.00 0.00 95 1010.8
20260509113339 23 19 1.6 3.2 0.00 0.00 0.00 95 1010.8
20260509112327 23 333 3.2 9.7 0.00 0.00 0.00 95 1010.9
20260509111338 23 40 0.0 0.0 0.00 0.00 0.00 95 1010.6
20260509110329 23 350 0.0 3.2 0.00 0.00 0.00 95 1010.2
20260509105335 23 127 0.0 0.0 0.00 0.00 0.00 95 1010.3
20260509104343 23 127 0.0 0.0 0.00 0.00 0.00 95 1010.3
20260509103330 23 123 0.0 0.0 0.00 0.00 0.00 95 1010.0
20260509102337 23 180 0.0 0.0 0.00 0.00 0.00 95 1010.0
20260509101336 23 180 0.0 0.0 0.00 0.00 0.00 95 1010.2
20260509100329 23 181 0.0 0.0 0.00 0.00 0.00 95 1010.0
20260509095338 23 180 0.0 0.0 0.00 0.00 0.00 95 1009.9
20260509094325 23 180 0.0 0.0 0.00 0.00 0.00 95 1009.6
20260509093335 23 180 0.0 0.0 0.00 0.00 0.00 95 1009.6
20260509092341 23 180 0.0 0.0 0.00 0.00 0.00 95 1009.7
20260509091329 23 180 0.0 0.0 0.00 0.00 0.00 95 1009.8
20260509090339 23 181 0.0 0.0 0.00 0.00 0.00 95 1010.0
20260509085328 23 181 0.0 0.0 0.00 0.00 0.00 95 1010.2
20260509084357 23 177 0.0 0.0 0.00 0.00 0.00 95 1010.2
20260509083327 23 177 0.0 0.0 0.00 0.00 0.00 95 1010.1
20260509082334 23 177 0.0 0.0 0.00 0.00 0.00 95 1010.2
20260509081341 23 150 0.0 4.8 0.00 0.00 0.00 95 1010.2
20260509080329 23 121 0.0 0.0 0.00 0.00 0.00 95 1010.1
20260509075339 23 119 0.0 4.8 0.00 0.00 0.00 95 1010.1
20260509074324 23 127 1.6 6.4 0.00 0.00 0.00 95 1009.9
20260509073334 23 138 4.8 8.0 0.00 0.00 0.00 95 1009.7
20260509072341 23 132 4.8 8.0 0.00 0.00 0.00 95 1009.8
20260509071329 23 122 4.8 11.3 0.00 0.00 0.00 94 1009.8
20260509070338 23 119 6.4 12.9 0.00 0.00 0.00 94 1009.6
20260509065329 23 133 6.4 9.7 0.00 0.00 0.00 94 1009.8
20260509064335 23 123 6.4 12.9 0.00 0.00 0.00 94 1009.9
20260509063324 23 127 4.8 8.0 0.00 0.00 0.00 93 1010.1
20260509062350 23 129 4.8 8.0 0.00 0.00 0.00 93 1010.3
20260509061337 23 127 3.2 4.8 0.00 0.00 0.00 93 1010.4
20260509060323 23 133 4.8 8.0 0.00 0.00 0.00 92 1010.6
20260509055330 23 131 4.8 6.4 0.00 0.00 0.00 92 1010.5
20260509054342 23 126 4.8 9.7 0.00 0.00 0.00 92 1010.5
20260509053329 23 129 3.2 4.8 0.00 0.00 0.00 92 1010.6
20260509052336 23 129 3.2 4.8 0.00 0.00 0.00 92 1010.6
20260509051343 23 131 1.6 3.2 0.00 0.00 0.00 92 1010.7
20260509050330 23 151 0.0 0.0 0.00 0.00 0.00 92 1010.6
20260509045329 23 95 0.0 0.0 0.00 0.00 0.00 92 1010.5
20260509044337 23 81 0.0 0.0 0.00 0.00 0.00 91 1010.5
20260509043325 23 52 0.0 0.0 0.00 0.00 0.00 91 1010.5
20260509042337 23 115 0.0 0.0 0.00 0.00 0.00 91 1010.5
20260509041343 23 113 0.0 4.8 0.00 0.00 0.00 91 1010.5
20260509040331 23 128 4.8 9.7 0.00 0.00 0.00 91 1010.4
20260509035336 23 102 3.2 6.4 0.00 0.00 0.00 91 1010.4
20260509034403 23 125 4.8 9.7 0.00 0.00 0.00 91 1010.4
20260509033324 23 144 3.2 6.4 0.00 0.00 0.00 91 1010.3
20260509032352 23 129 0.0 3.2 0.00 0.00 0.00 91 1010.2
20260509031339 23 28 0.0 3.2 0.00 0.00 0.00 91 1010.0
20260509030332 23 54 0.0 0.0 0.00 0.00 0.00 91 1010.1
20260509025340 23 54 0.0 0.0 0.00 0.00 0.00 91 1010.0
20260509024325 23 54 0.0 0.0 0.00 0.00 0.00 90 1009.9
20260509023333 23 54 0.0 0.0 0.00 0.00 0.00 90 1009.9
20260509022341 23 54 0.0 0.0 0.00 0.00 0.00 90 1010.0
20260509021330 23 102 0.0 0.0 0.00 0.00 0.00 90 1009.7
20260509020341 23 131 0.0 0.0 0.00 0.00 0.00 90 1009.6
20260509015352 23 131 0.0 0.0 0.00 0.00 0.00 90 1009.4
20260509014324 23 128 0.0 4.8 0.00 0.00 0.00 90 1009.2
20260509013335 23 82 0.0 1.6 0.00 0.00 0.00 89 1009.2
20260509012344 23 82 0.0 1.6 0.00 0.00 0.00 89 1009.2
20260509011332 23 27 0.0 0.0 0.00 0.00 0.00 89 1009.2
20260509010340 23 107 0.0 1.6 0.00 0.00 0.00 89 1009.4
20260509005331 23 111 0.0 4.8 0.00 0.00 0.00 88 1009.3
20260509004339 23 92 1.6 3.2 0.00 0.00 0.00 88 1009.1
20260509003330 23 140 1.6 8.0 0.00 0.00 0.00 88 1009.1
20260509002336 24 111 0.0 1.6 0.00 0.00 0.00 88 1009.0
20260509001403 24 119 0.0 3.2 0.00 0.00 0.00 88 1009.0
20260509000330 24 102 1.6 4.8 0.00 0.00 0.00 88 1009.1
20260508235337 24 108 0.0 3.2 0.00 0.00 0.00 88 1009.2
20260508234329 24 77 0.0 3.2 0.00 0.00 0.00 88 1009.2
20260508233338 24 95 0.0 0.0 0.00 0.00 0.00 87 1009.2
20260508232325 24 84 0.0 4.8 0.00 0.00 0.00 87 1009.1
20260508231353 25 111 1.6 4.8 0.00 0.00 0.00 87 1009.2